Location: Mohawk View
(42.7837°N, 73.7885°W)
Time: 01:18:23
(UTC+00:00)

Cosmos 1844 Rocket - Pass Details

Date: 17 June 2021
Orbit: 823 x 846 km, 71.0° (Epoch: 02 August)

Event Time Altitude Azimuth Distance (km) Brightness Sun altitude
Rises 03:24:28 0° 328° (NNW) 3,410 7.4 -20.5°
Reaches altitude 10° 03:27:04 10° 320° (NW) 2,473 6.2 -20.7°
Maximum altitude 03:32:15 38° 255° (WSW) 1,274 3.6 -21.1°
Enters shadow 03:34:26 27° 211° (SSW) 1,554 3.7 -21.2°
